This is the latest recevied weather packets stored in our database for station/object WD7OO. If no packets are shown the sender has not sent any weather packets the latest 10 day(s).
| Time | Temp. | Humidity | Pressure | Rain* | Wind** | Luminosity | Snow |
|---|---|---|---|---|---|---|---|
| 1788052387 | 21.11° C | 91% | 1019.6 hPa | 0 mm | - | 0 W/m² | - |
| 1788052081 | 21.11° C | 90% | 1019.2 hPa | 0 mm | - | 0 W/m² | - |
| 1788051776 | 21.11° C | 90% | 1018.9 hPa | 0 mm | - | 0 W/m² | - |
| 1788051471 | 21.11° C | 89% | 1019.4 hPa | 0 mm | - | 0 W/m² | - |
| 1788051169 | 21.11° C | 89% | 1019.6 hPa | 0 mm | - | 0 W/m² | - |
| 1788050869 | 21.11° C | 89% | 1019.4 hPa | 0 mm | - | 0 W/m² | - |
| 1788050564 | 21.11° C | 89% | 1019.8 hPa | 0 mm | - | 0 W/m² | - |
| 1788050259 | 21.11° C | 89% | 1019.6 hPa | 0 mm | - | 0 W/m² | - |
| 1788049953 | 21.67° C | 88% | 1019.6 hPa | 0 mm | - | 0 W/m² | - |
| 1788049650 | 21.67° C | 87% | 1019.7 hPa | 0 mm | - | 0 W/m² | - |
| 1788049347 | 21.67° C | 87% | 1019.7 hPa | 0 mm | - | 0 W/m² | - |
| 1788049041 | 21.67° C | 85% | 1019.4 hPa | 0 mm | - | 0 W/m² | - |
| 1788048737 | 22.22° C | 84% | 1019.8 hPa | 0 mm | - | 2 W/m² | - |
| 1788048435 | 22.78° C | 84% | 1019.6 hPa | 0 mm | - | 4 W/m² | - |
| 1788048134 | 22.78° C | 82% | 1019.3 hPa | 0 mm | - | 6 W/m² | - |
| 1788047832 | 22.78° C | 82% | 1019.3 hPa | 0 mm | - | 9 W/m² | - |
| 1788047526 | 23.33° C | 81% | 1019.3 hPa | 0 mm | - | 13 W/m² | - |
| 1788047221 | 23.33° C | 80% | 1019.3 hPa | 0 mm | - | 19 W/m² | - |
| 1788046916 | 23.89° C | 80% | 1019.3 hPa | 0 mm | - | 24 W/m² | - |
| 1788046614 | 23.89° C | 79% | 1019.1 hPa | 0 mm | - | 31 W/m² | - |
| 1788046310 | 23.89° C | 79% | 1019.3 hPa | 0 mm | - | 42 W/m² | - |
| 1788046007 | 23.89° C | 79% | 1019.4 hPa | 0 mm | - | 52 W/m² | - |
| 1788045703 | 24.44° C | 78% | 1019.2 hPa | 0 mm | - | 58 W/m² | - |
| 1788045397 | 24.44° C | 77% | 1019.2 hPa | 0 mm | - | 64 W/m² | - |
| 1788045093 | 24.44° C | 76% | 1019.4 hPa | 0 mm | - | 72 W/m² | - |
* Rain latest hour (hover to see other rain measurements)
** Current wind speed in m/s (hover to see current wind gust speed)